TimeMDT,TemperatureF,Dew PointF,Humidity,Sea Level PressureIn,VisibilityMPH,Wind Direction,Wind SpeedMPH,Gust SpeedMPH,PrecipitationIn,Events,Conditions,WindDirDegrees,DateUTC
12:53 AM,27.0,21.9,81,29.94,10.0,NW,9.2,-,N/A,,Overcast,310,2013-10-30 06:53:00
1:53 AM,26.1,21.0,81,29.92,10.0,NNW,11.5,-,N/A,,Overcast,330,2013-10-30 07:53:00
2:53 AM,28.0,21.0,75,29.89,10.0,NW,13.8,-,N/A,,Overcast,320,2013-10-30 08:53:00
3:53 AM,28.9,21.9,75,29.89,10.0,NW,9.2,-,N/A,,Overcast,320,2013-10-30 09:53:00
4:53 AM,27.0,21.0,78,29.89,10.0,NW,9.2,-,N/A,,Overcast,320,2013-10-30 10:53:00
5:53 AM,25.0,19.0,78,29.93,10.0,NW,12.7,-,N/A,,Partly Cloudy,320,2013-10-30 11:53:00
6:53 AM,27.0,21.0,78,29.93,10.0,NW,12.7,-,N/A,,Clear,320,2013-10-30 12:53:00
7:53 AM,27.0,21.0,78,29.94,10.0,WNW,9.2,-,N/A,,Clear,290,2013-10-30 13:53:00
8:53 AM,32.0,23.0,69,29.94,10.0,WNW,9.2,-,N/A,,Clear,300,2013-10-30 14:53:00
9:53 AM,39.0,27.0,62,29.93,10.0,West,11.5,-,N/A,,Clear,260,2013-10-30 15:53:00
10:53 AM,43.0,28.0,56,29.92,10.0,West,15.0,-,N/A,,Clear,270,2013-10-30 16:53:00
11:53 AM,46.0,28.0,50,29.88,10.0,WSW,25.3,33.4,N/A,,Clear,250,2013-10-30 17:53:00
12:53 PM,46.9,27.0,46,29.88,10.0,WSW,24.2,35.7,N/A,,Partly Cloudy,240,2013-10-30 18:53:00
1:53 PM,48.0,25.0,41,29.87,10.0,WSW,28.8,38.0,N/A,,Clear,250,2013-10-30 19:53:00
2:53 PM,48.9,26.1,41,29.85,10.0,WSW,25.3,32.2,N/A,,Clear,250,2013-10-30 20:53:00
3:53 PM,48.0,24.1,39,29.85,10.0,West,26.5,34.5,N/A,,Clear,260,2013-10-30 21:53:00
4:53 PM,46.9,25.0,42,29.88,10.0,West,24.2,-,N/A,,Clear,260,2013-10-30 22:53:00
5:53 PM,44.1,25.0,47,29.90,10.0,West,17.3,-,N/A,,Clear,260,2013-10-30 23:53:00
6:53 PM,41.0,25.0,53,29.92,10.0,WNW,12.7,-,N/A,,Clear,290,2013-10-31 00:53:00
7:53 PM,39.9,25.0,55,29.94,10.0,West,17.3,-,N/A,,Clear,270,2013-10-31 01:53:00
8:53 PM,37.9,25.0,60,29.93,10.0,WNW,15.0,-,N/A,,Clear,290,2013-10-31 02:53:00
9:53 PM,37.9,25.0,60,29.91,10.0,West,12.7,-,N/A,,Clear,280,2013-10-31 03:53:00
10:53 PM,37.0,25.0,62,29.91,10.0,West,16.1,-,N/A,,Clear,280,2013-10-31 04:53:00
11:53 PM,39.0,25.0,57,29.89,10.0,WNW,16.1,-,N/A,,Clear,290,2013-10-31 05:53:00